owner,sensor,date,latitude,longitude,air_pressure(mBar),qcFlag 
TABS,ioos:station:wmo:42045:1,2006-11-01T00:00:00Z,26.2168,-96.4998,1013.18,11111222 
TABS,ioos:station:wmo:42045:1,2006-11-01T00:30:00Z,26.2168,-96.4998,1013.54,11111222 
TABS,ioos:station:wmo:42045:1,2006-11-01T01:00:00Z,26.2168,-96.4998,1013.75,11111222 
TABS,ioos:station:wmo:42045:1,2006-11-01T01:30:00Z,26.2168,-96.4998,1013.98,11111222 
TABS,ioos:station:wmo:42045:1,2006-11-01T02:00:00Z,26.2168,-96.4998,1014.34,11111222 
TABS,ioos:station:wmo:42045:1,2006-11-01T02:30:00Z,26.2168,-96.4998,1014.33,11111222 
TABS,ioos:station:wmo:42045:1,2006-11-01T03:00:00Z,26.2168,-96.4998,1014.43,11111222 
TABS,ioos:station:wmo:42045:1,2006-11-01T03:30:00Z,26.2168,-96.4998,1014.51,11111222 
TABS,ioos:station:wmo:42045:1,2006-11-01T04:00:00Z,26.2168,-96.4998,1014.72,11111222 
TABS,ioos:station:wmo:42045:1,2006-11-01T04:30:00Z,26.2168,-96.4998,1014.4,11111222 
TABS,ioos:station:wmo:42045:1,2006-11-01T05:00:00Z,26.2168,-96.4998,1014.43,11111222 
TABS,ioos:station:wmo:42045:1,2006-11-01T05:30:00Z,26.2168,-96.4998,1014.19,11111222 
TABS,ioos:station:wmo:42045:1,2006-11-01T06:00:00Z,26.2168,-96.4998,1013.9,11111222 
TABS,ioos:station:wmo:42045:1,2006-11-01T06:30:00Z,26.2168,-96.4998,1013.75,11111222 
TABS,ioos:station:wmo:42045:1,2006-11-01T07:00:00Z,26.2168,-96.4998,1013.78,11111222 
TABS,ioos:station:wmo:42045:1,2006-11-01T07:30:00Z,26.2168,-96.4998,1013.52,11111222 
TABS,ioos:station:wmo:42045:1,2006-11-01T08:00:00Z,26.2168,-96.4998,1013.38,11111222 
TABS,ioos:station:wmo:42045:1,2006-11-01T08:30:00Z,26.2168,-96.4998,1013.21,11111222 
TABS,ioos:station:wmo:42045:1,2006-11-01T09:00:00Z,26.2168,-96.4998,1012.85,11111222 
TABS,ioos:station:wmo:42045:1,2006-11-01T09:30:00Z,26.2168,-96.4998,1013.13,11111222 
TABS,ioos:station:wmo:42045:1,2006-11-01T10:00:00Z,26.2168,-96.4998,1013.28,11111222 
TABS,ioos:station:wmo:42045:1,2006-11-01T10:30:00Z,26.2168,-96.4998,1013.48,11111222 
TABS,ioos:station:wmo:42045:1,2006-11-01T11:00:00Z,26.2168,-96.4998,1013.76,11111222 
TABS,ioos:station:wmo:42045:1,2006-11-01T11:30:00Z,26.2168,-96.4998,1013.76,11111222 
TABS,ioos:station:wmo:42045:1,2006-11-01T12:00:00Z,26.2168,-96.4998,1014.08,11111222 
TABS,ioos:station:wmo:42045:1,2006-11-01T12:30:00Z,26.2168,-96.4998,1014.25,11111222 
TABS,ioos:station:wmo:42045:1,2006-11-01T13:00:00Z,26.2168,-96.4998,1014.46,11111222 
TABS,ioos:station:wmo:42045:1,2006-11-01T13:30:00Z,26.2168,-96.4998,1014.87,11111222 
TABS,ioos:station:wmo:42045:1,2006-11-01T14:00:00Z,26.2168,-96.4998,1015.12,11111222 
TABS,ioos:station:wmo:42045:1,2006-11-01T14:30:00Z,26.2168,-96.4998,1015.35,11111222 
TABS,ioos:station:wmo:42045:1,2006-11-01T15:00:00Z,26.2168,-96.4998,1015.49,11111222 
TABS,ioos:station:wmo:42045:1,2006-11-01T15:30:00Z,26.2168,-96.4998,1015.71,11111222 
TABS,ioos:station:wmo:42045:1,2006-11-01T16:00:00Z,26.2168,-96.4998,1015.56,11111222 
TABS,ioos:station:wmo:42045:1,2006-11-01T16:30:00Z,26.2168,-96.4998,1015.29,11111222 
TABS,ioos:station:wmo:42045:1,2006-11-01T17:00:00Z,26.2168,-96.4998,1015.06,11111222 
TABS,ioos:station:wmo:42045:1,2006-11-01T17:30:00Z,26.2168,-96.4998,1014.73,11111222 
TABS,ioos:station:wmo:42045:1,2006-11-01T18:00:00Z,26.2168,-96.4998,1014.26,11111222 
TABS,ioos:station:wmo:42045:1,2006-11-01T18:30:00Z,26.2168,-96.4998,1013.79,11111222 
TABS,ioos:station:wmo:42045:1,2006-11-01T19:00:00Z,26.2168,-96.4998,1013.42,11111222 
TABS,ioos:station:wmo:42045:1,2006-11-01T19:30:00Z,26.2168,-96.4998,1013.29,11111222 
TABS,ioos:station:wmo:42045:1,2006-11-01T20:00:00Z,26.2168,-96.4998,1012.98,11111222 
TABS,ioos:station:wmo:42045:1,2006-11-01T20:30:00Z,26.2168,-96.4998,1012.91,11111222 
TABS,ioos:station:wmo:42045:1,2006-11-01T21:00:00Z,26.2168,-96.4998,1012.87,11111222 
TABS,ioos:station:wmo:42045:1,2006-11-01T21:30:00Z,26.2168,-96.4998,1013.03,11111222 
TABS,ioos:station:wmo:42045:1,2006-11-01T22:00:00Z,26.2168,-96.4998,1013.2,11111222 
TABS,ioos:station:wmo:42045:1,2006-11-01T22:30:00Z,26.2168,-96.4998,1013.37,11111222 
TABS,ioos:station:wmo:42045:1,2006-11-01T23:00:00Z,26.2168,-96.4998,1013.78,11111222 
TABS,ioos:station:wmo:42045:1,2006-11-01T23:30:00Z,26.2168,-96.4998,1014.19,11111222 
TABS,ioos:station:wmo:42045:1,2006-11-02T00:00:00Z,26.2168,-96.4998,1014.26,11111222 
TABS,ioos:station:wmo:42045:1,2006-11-02T00:30:00Z,26.2168,-96.4998,1014.74,11111222 
TABS,ioos:station:wmo:42045:1,2006-11-02T01:00:00Z,26.2168,-96.4998,1014.95,11111222 
TABS,ioos:station:wmo:42045:1,2006-11-02T01:30:00Z,26.2168,-96.4998,1014.86,11111222 
TABS,ioos:station:wmo:42045:1,2006-11-02T02:00:00Z,26.2168,-96.4998,1015.11,11111222 
TABS,ioos:station:wmo:42045:1,2006-11-02T02:30:00Z,26.2168,-96.4998,1015.41,11111222 
TABS,ioos:station:wmo:42045:1,2006-11-02T03:00:00Z,26.2168,-96.4998,1015.7,11111222 
TABS,ioos:station:wmo:42045:1,2006-11-02T03:30:00Z,26.2168,-96.4998,1015.86,11111222 
TABS,ioos:station:wmo:42045:1,2006-11-02T04:00:00Z,26.2168,-96.4998,1015.95,11111222 
TABS,ioos:station:wmo:42045:1,2006-11-02T04:30:00Z,26.2168,-96.4998,1015.97,11111222 
TABS,ioos:station:wmo:42045:1,2006-11-02T05:00:00Z,26.2168,-96.4998,1016.32,11111222 
TABS,ioos:station:wmo:42045:1,2006-11-02T05:30:00Z,26.2168,-96.4998,1016.25,11111222 
TABS,ioos:station:wmo:42045:1,2006-11-02T06:00:00Z,26.2168,-96.4998,1016.09,11111222 
TABS,ioos:station:wmo:42045:1,2006-11-02T06:30:00Z,26.2168,-96.4998,1016.09,11111222 
TABS,ioos:station:wmo:42045:1,2006-11-02T07:00:00Z,26.2168,-96.4998,1016.21,11111222 
TABS,ioos:station:wmo:42045:1,2006-11-02T07:30:00Z,26.2168,-96.4998,1015.96,11111222 
TABS,ioos:station:wmo:42045:1,2006-11-02T08:00:00Z,26.2168,-96.4998,1015.79,11111222 
TABS,ioos:station:wmo:42045:1,2006-11-02T08:30:00Z,26.2168,-96.4998,1015.8,11111222 
TABS,ioos:station:wmo:42045:1,2006-11-02T09:00:00Z,26.2168,-96.4998,1015.97,11111222 
TABS,ioos:station:wmo:42045:1,2006-11-02T09:30:00Z,26.2168,-96.4998,1016.37,11111222 
TABS,ioos:station:wmo:42045:1,2006-11-02T10:00:00Z,26.2168,-96.4998,1016.17,11111222 
TABS,ioos:station:wmo:42045:1,2006-11-02T10:30:00Z,26.2168,-96.4998,1016.39,11111222 
TABS,ioos:station:wmo:42045:1,2006-11-02T11:00:00Z,26.2168,-96.4998,1016.94,11111222 
TABS,ioos:station:wmo:42045:1,2006-11-02T11:30:00Z,26.2168,-96.4998,1017.18,11111222 
TABS,ioos:station:wmo:42045:1,2006-11-02T12:00:00Z,26.2168,-96.4998,1017.34,11111222 
TABS,ioos:station:wmo:42045:1,2006-11-02T12:30:00Z,26.2168,-96.4998,1017.85,11111222 
TABS,ioos:station:wmo:42045:1,2006-11-02T13:00:00Z,26.2168,-96.4998,1018.39,11111222 
TABS,ioos:station:wmo:42045:1,2006-11-02T13:30:00Z,26.2168,-96.4998,1019.15,11111222 
TABS,ioos:station:wmo:42045:1,2006-11-02T14:00:00Z,26.2168,-96.4998,1019.7,11111222 
TABS,ioos:station:wmo:42045:1,2006-11-02T14:30:00Z,26.2168,-96.4998,1019.75,11111222 
TABS,ioos:station:wmo:42045:1,2006-11-02T15:00:00Z,26.2168,-96.4998,1019.82,11111222 
TABS,ioos:station:wmo:42045:1,2006-11-02T15:30:00Z,26.2168,-96.4998,1020.14,11111222 
TABS,ioos:station:wmo:42045:1,2006-11-02T16:00:00Z,26.2168,-96.4998,1020.31,11111222 
TABS,ioos:station:wmo:42045:1,2006-11-02T16:30:00Z,26.2168,-96.4998,1020.14,11111222 
TABS,ioos:station:wmo:42045:1,2006-11-02T17:00:00Z,26.2168,-96.4998,1020.26,11111222 
TABS,ioos:station:wmo:42045:1,2006-11-02T17:30:00Z,26.2168,-96.4998,1020.08,11111222 
TABS,ioos:station:wmo:42045:1,2006-11-02T18:00:00Z,26.2168,-96.4998,1019.95,11111222 
TABS,ioos:station:wmo:42045:1,2006-11-02T18:30:00Z,26.2168,-96.4998,1019.59,11111222 
TABS,ioos:station:wmo:42045:1,2006-11-02T19:00:00Z,26.2168,-96.4998,1019.34,11111222 
TABS,ioos:station:wmo:42045:1,2006-11-02T19:30:00Z,26.2168,-96.4998,1019.0,11111222 
TABS,ioos:station:wmo:42045:1,2006-11-02T20:00:00Z,26.2168,-96.4998,1019.71,11111222 
TABS,ioos:station:wmo:42045:1,2006-11-02T20:30:00Z,26.2168,-96.4998,1019.81,11111222 
TABS,ioos:station:wmo:42045:1,2006-11-02T21:00:00Z,26.2168,-96.4998,1019.54,11111222 
TABS,ioos:station:wmo:42045:1,2006-11-02T21:30:00Z,26.2168,-96.4998,1019.88,11111222 
TABS,ioos:station:wmo:42045:1,2006-11-02T22:00:00Z,26.2168,-96.4998,1020.05,11111222 
TABS,ioos:station:wmo:42045:1,2006-11-02T22:30:00Z,26.2168,-96.4998,1020.28,11111222 
TABS,ioos:station:wmo:42045:1,2006-11-02T23:00:00Z,26.2168,-96.4998,1020.46,11111222 
TABS,ioos:station:wmo:42045:1,2006-11-02T23:30:00Z,26.2168,-96.4998,1020.51,11111222 
TABS,ioos:station:wmo:42045:1,2006-11-03T00:00:00Z,26.2168,-96.4998,1020.97,11111222 
TABS,ioos:station:wmo:42045:1,2006-11-03T00:30:00Z,26.2168,-96.4998,1021.58,11111222 
TABS,ioos:station:wmo:42045:1,2006-11-03T01:00:00Z,26.2168,-96.4998,1022.1,11111222 
TABS,ioos:station:wmo:42045:1,2006-11-03T01:30:00Z,26.2168,-96.4998,1022.51,11111222 
TABS,ioos:station:wmo:42045:1,2006-11-03T02:00:00Z,26.2168,-96.4998,1022.65,11111222 
TABS,ioos:station:wmo:42045:1,2006-11-03T02:30:00Z,26.2168,-96.4998,1022.81,11111222 
TABS,ioos:station:wmo:42045:1,2006-11-03T03:00:00Z,26.2168,-96.4998,1022.82,11111222 
TABS,ioos:station:wmo:42045:1,2006-11-03T03:30:00Z,26.2168,-96.4998,1023.18,11111222 
TABS,ioos:station:wmo:42045:1,2006-11-03T04:00:00Z,26.2168,-96.4998,1023.25,11111222 
TABS,ioos:station:wmo:42045:1,2006-11-03T04:30:00Z,26.2168,-96.4998,1023.34,11111222 
TABS,ioos:station:wmo:42045:1,2006-11-03T05:00:00Z,26.2168,-96.4998,1023.1,11111222 
TABS,ioos:station:wmo:42045:1,2006-11-03T05:30:00Z,26.2168,-96.4998,1023.1,11111222 
TABS,ioos:station:wmo:42045:1,2006-11-03T06:00:00Z,26.2168,-96.4998,1022.84,11111222 
TABS,ioos:station:wmo:42045:1,2006-11-03T06:30:00Z,26.2168,-96.4998,1022.76,11111222 
TABS,ioos:station:wmo:42045:1,2006-11-03T07:00:00Z,26.2168,-96.4998,1022.6,11111222 
TABS,ioos:station:wmo:42045:1,2006-11-03T07:30:00Z,26.2168,-96.4998,1022.46,11111222 
TABS,ioos:station:wmo:42045:1,2006-11-03T08:00:00Z,26.2168,-96.4998,1022.2,11111222 
TABS,ioos:station:wmo:42045:1,2006-11-03T08:30:00Z,26.2168,-96.4998,1021.95,11111222 
TABS,ioos:station:wmo:42045:1,2006-11-03T09:00:00Z,26.2168,-96.4998,1021.76,11111222 
TABS,ioos:station:wmo:42045:1,2006-11-03T09:30:00Z,26.2168,-96.4998,1021.69,11111222 
TABS,ioos:station:wmo:42045:1,2006-11-03T10:00:00Z,26.2168,-96.4998,1021.74,11111222 
TABS,ioos:station:wmo:42045:1,2006-11-03T10:30:00Z,26.2168,-96.4998,1021.76,11111222 
TABS,ioos:station:wmo:42045:1,2006-11-03T11:00:00Z,26.2168,-96.4998,1022.04,11111222 
TABS,ioos:station:wmo:42045:1,2006-11-03T11:30:00Z,26.2168,-96.4998,1022.17,11111222 
TABS,ioos:station:wmo:42045:1,2006-11-03T12:00:00Z,26.2168,-96.4998,1022.19,11111222 
TABS,ioos:station:wmo:42045:1,2006-11-03T12:30:00Z,26.2168,-96.4998,1022.77,11111222 
TABS,ioos:station:wmo:42045:1,2006-11-03T13:00:00Z,26.2168,-96.4998,1022.96,11111222 
TABS,ioos:station:wmo:42045:1,2006-11-03T13:30:00Z,26.2168,-96.4998,1023.37,11111222 
TABS,ioos:station:wmo:42045:1,2006-11-03T14:00:00Z,26.2168,-96.4998,1023.59,11111222 
TABS,ioos:station:wmo:42045:1,2006-11-03T14:30:00Z,26.2168,-96.4998,1023.89,11111222 
TABS,ioos:station:wmo:42045:1,2006-11-03T15:00:00Z,26.2168,-96.4998,1023.98,11111222 
TABS,ioos:station:wmo:42045:1,2006-11-03T15:30:00Z,26.2168,-96.4998,1024.07,11111222 
TABS,ioos:station:wmo:42045:1,2006-11-03T16:00:00Z,26.2168,-96.4998,1024.23,11111222 
TABS,ioos:station:wmo:42045:1,2006-11-03T16:30:00Z,26.2168,-96.4998,1024.37,11111222 
TABS,ioos:station:wmo:42045:1,2006-11-03T17:00:00Z,26.2168,-96.4998,1024.18,11111222 
TABS,ioos:station:wmo:42045:1,2006-11-03T17:30:00Z,26.2168,-96.4998,1023.79,11111222 
TABS,ioos:station:wmo:42045:1,2006-11-03T18:00:00Z,26.2168,-96.4998,1023.38,11111222 
TABS,ioos:station:wmo:42045:1,2006-11-03T18:30:00Z,26.2168,-96.4998,1023.22,11111222 
TABS,ioos:station:wmo:42045:1,2006-11-03T19:00:00Z,26.2168,-96.4998,1022.65,11111222 
TABS,ioos:station:wmo:42045:1,2006-11-03T19:30:00Z,26.2168,-96.4998,1022.27,11111222 
TABS,ioos:station:wmo:42045:1,2006-11-03T20:00:00Z,26.2168,-96.4998,1021.76,11111222 
TABS,ioos:station:wmo:42045:1,2006-11-03T20:30:00Z,26.2168,-96.4998,1021.5,11111222 
TABS,ioos:station:wmo:42045:1,2006-11-03T21:00:00Z,26.2168,-96.4998,1021.28,11111222 
TABS,ioos:station:wmo:42045:1,2006-11-03T21:30:00Z,26.2168,-96.4998,1021.19,11111222 
TABS,ioos:station:wmo:42045:1,2006-11-03T22:00:00Z,26.2168,-96.4998,1021.26,11111222 
TABS,ioos:station:wmo:42045:1,2006-11-03T22:30:00Z,26.2168,-96.4998,1021.26,11111222 
TABS,ioos:station:wmo:42045:1,2006-11-03T23:00:00Z,26.2168,-96.4998,1021.4,11111222 
TABS,ioos:station:wmo:42045:1,2006-11-03T23:30:00Z,26.2168,-96.4998,1021.59,11111222 
TABS,ioos:station:wmo:42045:1,2006-11-04T00:00:00Z,26.2168,-96.4998,1021.8,11111222 
TABS,ioos:station:wmo:42045:1,2006-11-04T00:30:00Z,26.2168,-96.4998,1021.83,11111222 
TABS,ioos:station:wmo:42045:1,2006-11-04T01:00:00Z,26.2168,-96.4998,1022.13,11111222 
TABS,ioos:station:wmo:42045:1,2006-11-04T01:30:00Z,26.2168,-96.4998,1022.43,11111222 
TABS,ioos:station:wmo:42045:1,2006-11-04T02:00:00Z,26.2168,-96.4998,1022.4,11111222 
TABS,ioos:station:wmo:42045:1,2006-11-04T02:30:00Z,26.2168,-96.4998,1022.57,11111222 
TABS,ioos:station:wmo:42045:1,2006-11-04T03:00:00Z,26.2168,-96.4998,1022.53,11111222 
TABS,ioos:station:wmo:42045:1,2006-11-04T03:30:00Z,26.2168,-96.4998,1022.45,11111222 
TABS,ioos:station:wmo:42045:1,2006-11-04T04:00:00Z,26.2168,-96.4998,1022.49,11111222 
TABS,ioos:station:wmo:42045:1,2006-11-04T04:30:00Z,26.2168,-96.4998,1022.35,11111222 
TABS,ioos:station:wmo:42045:1,2006-11-04T05:00:00Z,26.2168,-96.4998,1022.14,11111222 
TABS,ioos:station:wmo:42045:1,2006-11-04T05:30:00Z,26.2168,-96.4998,1021.81,11111222 
TABS,ioos:station:wmo:42045:1,2006-11-04T06:00:00Z,26.2168,-96.4998,1021.76,11111222 
TABS,ioos:station:wmo:42045:1,2006-11-04T06:30:00Z,26.2168,-96.4998,1021.52,11111222 
TABS,ioos:station:wmo:42045:1,2006-11-04T07:00:00Z,26.2168,-96.4998,1021.22,11111222 
TABS,ioos:station:wmo:42045:1,2006-11-04T07:30:00Z,26.2168,-96.4998,1020.86,11111222 
TABS,ioos:station:wmo:42045:1,2006-11-04T08:00:00Z,26.2168,-96.4998,1020.65,11111222 
TABS,ioos:station:wmo:42045:1,2006-11-04T08:30:00Z,26.2168,-96.4998,1020.31,11111222 
TABS,ioos:station:wmo:42045:1,2006-11-04T09:00:00Z,26.2168,-96.4998,1020.2,11111222 
TABS,ioos:station:wmo:42045:1,2006-11-04T09:30:00Z,26.2168,-96.4998,1019.91,11111222 
TABS,ioos:station:wmo:42045:1,2006-11-04T10:00:00Z,26.2168,-96.4998,1019.6,11111222 
TABS,ioos:station:wmo:42045:1,2006-11-04T10:30:00Z,26.2168,-96.4998,1019.84,11111222 
TABS,ioos:station:wmo:42045:1,2006-11-04T11:00:00Z,26.2168,-96.4998,1020.11,11111222 
TABS,ioos:station:wmo:42045:1,2006-11-04T11:30:00Z,26.2168,-96.4998,1020.2,11111222 
TABS,ioos:station:wmo:42045:1,2006-11-04T12:00:00Z,26.2168,-96.4998,1020.27,11111222 
TABS,ioos:station:wmo:42045:1,2006-11-04T12:30:00Z,26.2168,-96.4998,1020.45,11111222 
TABS,ioos:station:wmo:42045:1,2006-11-04T13:00:00Z,26.2168,-96.4998,1020.61,11111222 
TABS,ioos:station:wmo:42045:1,2006-11-04T13:30:00Z,26.2168,-96.4998,1020.78,11111222 
TABS,ioos:station:wmo:42045:1,2006-11-04T14:00:00Z,26.2168,-96.4998,1021.13,11111222 
TABS,ioos:station:wmo:42045:1,2006-11-04T14:30:00Z,26.2168,-96.4998,1021.46,11111222 
TABS,ioos:station:wmo:42045:1,2006-11-04T15:00:00Z,26.2168,-96.4998,1021.52,11111222 
TABS,ioos:station:wmo:42045:1,2006-11-04T15:30:00Z,26.2168,-96.4998,1021.48,11111222 
TABS,ioos:station:wmo:42045:1,2006-11-04T16:00:00Z,26.2168,-96.4998,1021.44,11111222 
TABS,ioos:station:wmo:42045:1,2006-11-04T16:30:00Z,26.2168,-96.4998,1021.25,11111222 
TABS,ioos:station:wmo:42045:1,2006-11-04T17:00:00Z,26.2168,-96.4998,1020.8,11111222 
TABS,ioos:station:wmo:42045:1,2006-11-04T17:30:00Z,26.2168,-96.4998,1020.67,11111222 
TABS,ioos:station:wmo:42045:1,2006-11-04T18:00:00Z,26.2168,-96.4998,1020.32,11111222 
TABS,ioos:station:wmo:42045:1,2006-11-04T18:30:00Z,26.2168,-96.4998,1019.71,11111222 
TABS,ioos:station:wmo:42045:1,2006-11-04T19:00:00Z,26.2168,-96.4998,1019.36,11111222 
TABS,ioos:station:wmo:42045:1,2006-11-04T19:30:00Z,26.2168,-96.4998,1018.99,11111222 
TABS,ioos:station:wmo:42045:1,2006-11-04T20:00:00Z,26.2168,-96.4998,1018.76,11111222 
TABS,ioos:station:wmo:42045:1,2006-11-04T20:30:00Z,26.2168,-96.4998,1018.74,11111222 
TABS,ioos:station:wmo:42045:1,2006-11-04T21:00:00Z,26.2168,-96.4998,1018.64,11111222 
TABS,ioos:station:wmo:42045:1,2006-11-04T21:30:00Z,26.2168,-96.4998,1018.61,11111222 
TABS,ioos:station:wmo:42045:1,2006-11-04T22:00:00Z,26.2168,-96.4998,1018.62,11111222 
TABS,ioos:station:wmo:42045:1,2006-11-04T22:30:00Z,26.2168,-96.4998,1018.61,11111222 
TABS,ioos:station:wmo:42045:1,2006-11-04T23:00:00Z,26.2168,-96.4998,1018.55,11111222 
TABS,ioos:station:wmo:42045:1,2006-11-04T23:30:00Z,26.2168,-96.4998,1018.63,11111222 
TABS,ioos:station:wmo:42045:1,2006-11-05T00:00:00Z,26.2168,-96.4998,1018.83,11111222 
TABS,ioos:station:wmo:42045:1,2006-11-05T00:30:00Z,26.2168,-96.4998,1019.11,11111222 
TABS,ioos:station:wmo:42045:1,2006-11-05T01:00:00Z,26.2168,-96.4998,1019.24,11111222 
TABS,ioos:station:wmo:42045:1,2006-11-05T01:30:00Z,26.2168,-96.4998,1019.29,11111222 
TABS,ioos:station:wmo:42045:1,2006-11-05T02:00:00Z,26.2168,-96.4998,1019.13,11111222 
TABS,ioos:station:wmo:42045:1,2006-11-05T02:30:00Z,26.2168,-96.4998,1019.45,11111222 
TABS,ioos:station:wmo:42045:1,2006-11-05T03:00:00Z,26.2168,-96.4998,1019.42,11111222 
TABS,ioos:station:wmo:42045:1,2006-11-05T03:30:00Z,26.2168,-96.4998,1019.12,11111222 
TABS,ioos:station:wmo:42045:1,2006-11-05T04:00:00Z,26.2168,-96.4998,1019.11,11111222 
TABS,ioos:station:wmo:42045:1,2006-11-05T04:30:00Z,26.2168,-96.4998,1018.93,11111222 
TABS,ioos:station:wmo:42045:1,2006-11-05T05:00:00Z,26.2168,-96.4998,1018.61,11111222 
TABS,ioos:station:wmo:42045:1,2006-11-05T05:30:00Z,26.2168,-96.4998,1018.26,11111222 
TABS,ioos:station:wmo:42045:1,2006-11-05T06:00:00Z,26.2168,-96.4998,1018.18,11111222 
TABS,ioos:station:wmo:42045:1,2006-11-05T06:30:00Z,26.2168,-96.4998,1018.04,11111222 
TABS,ioos:station:wmo:42045:1,2006-11-05T07:00:00Z,26.2168,-96.4998,1017.87,11111222 
TABS,ioos:station:wmo:42045:1,2006-11-05T07:30:00Z,26.2168,-96.4998,1017.82,11111222 
TABS,ioos:station:wmo:42045:1,2006-11-05T08:00:00Z,26.2168,-96.4998,1017.57,11111222 
TABS,ioos:station:wmo:42045:1,2006-11-05T08:30:00Z,26.2168,-96.4998,1017.48,11111222 
TABS,ioos:station:wmo:42045:1,2006-11-05T09:00:00Z,26.2168,-96.4998,1017.39,11111222 
TABS,ioos:station:wmo:42045:1,2006-11-05T09:30:00Z,26.2168,-96.4998,1017.28,11111222 
TABS,ioos:station:wmo:42045:1,2006-11-05T10:00:00Z,26.2168,-96.4998,1017.15,11111222 
TABS,ioos:station:wmo:42045:1,2006-11-05T10:30:00Z,26.2168,-96.4998,1017.15,11111222 
TABS,ioos:station:wmo:42045:1,2006-11-05T11:00:00Z,26.2168,-96.4998,1017.1,11111222 
TABS,ioos:station:wmo:42045:1,2006-11-05T11:30:00Z,26.2168,-96.4998,1017.18,11111222 
TABS,ioos:station:wmo:42045:1,2006-11-05T12:00:00Z,26.2168,-96.4998,1017.07,11111222 
TABS,ioos:station:wmo:42045:1,2006-11-05T12:30:00Z,26.2168,-96.4998,1017.11,11111222 
TABS,ioos:station:wmo:42045:1,2006-11-05T13:00:00Z,26.2168,-96.4998,1017.3,11111222 
TABS,ioos:station:wmo:42045:1,2006-11-05T13:30:00Z,26.2168,-96.4998,1017.76,11111222 
TABS,ioos:station:wmo:42045:1,2006-11-05T14:00:00Z,26.2168,-96.4998,1017.96,11111222 
TABS,ioos:station:wmo:42045:1,2006-11-05T14:30:00Z,26.2168,-96.4998,1018.15,11111222 
TABS,ioos:station:wmo:42045:1,2006-11-05T15:00:00Z,26.2168,-96.4998,1018.24,11111222 
TABS,ioos:station:wmo:42045:1,2006-11-05T15:30:00Z,26.2168,-96.4998,1018.07,11111222 
TABS,ioos:station:wmo:42045:1,2006-11-05T16:00:00Z,26.2168,-96.4998,1018.21,11111222 
TABS,ioos:station:wmo:42045:1,2006-11-05T16:30:00Z,26.2168,-96.4998,1018.19,11111222 
TABS,ioos:station:wmo:42045:1,2006-11-05T17:00:00Z,26.2168,-96.4998,1017.96,11111222 
TABS,ioos:station:wmo:42045:1,2006-11-05T17:30:00Z,26.2168,-96.4998,1017.62,11111222 
TABS,ioos:station:wmo:42045:1,2006-11-05T18:00:00Z,26.2168,-96.4998,1017.12,11111222 
TABS,ioos:station:wmo:42045:1,2006-11-05T18:30:00Z,26.2168,-96.4998,1016.61,11111222 
TABS,ioos:station:wmo:42045:1,2006-11-05T19:00:00Z,26.2168,-96.4998,1016.21,11111222 
TABS,ioos:station:wmo:42045:1,2006-11-05T19:30:00Z,26.2168,-96.4998,1015.78,11111222 
TABS,ioos:station:wmo:42045:1,2006-11-05T20:00:00Z,26.2168,-96.4998,1015.49,11111222 
TABS,ioos:station:wmo:42045:1,2006-11-05T20:30:00Z,26.2168,-96.4998,1015.03,11111222 
TABS,ioos:station:wmo:42045:1,2006-11-05T21:00:00Z,26.2168,-96.4998,1014.81,11111222 
TABS,ioos:station:wmo:42045:1,2006-11-05T21:30:00Z,26.2168,-96.4998,1014.54,11111222 
TABS,ioos:station:wmo:42045:1,2006-11-05T22:00:00Z,26.2168,-96.4998,1014.45,11111222 
TABS,ioos:station:wmo:42045:1,2006-11-05T22:30:00Z,26.2168,-96.4998,1014.42,11111222 
TABS,ioos:station:wmo:42045:1,2006-11-05T23:00:00Z,26.2168,-96.4998,1014.5,11111222 
TABS,ioos:station:wmo:42045:1,2006-11-05T23:30:00Z,26.2168,-96.4998,1014.6,11111222 
TABS,ioos:station:wmo:42045:1,2006-11-06T00:00:00Z,26.2168,-96.4998,1014.54,11111222 
TABS,ioos:station:wmo:42045:1,2006-11-06T00:30:00Z,26.2168,-96.4998,1015.0,11111222 
TABS,ioos:station:wmo:42045:1,2006-11-06T01:00:00Z,26.2168,-96.4998,1015.17,11111222 
TABS,ioos:station:wmo:42045:1,2006-11-06T01:30:00Z,26.2168,-96.4998,1015.12,11111222 
TABS,ioos:station:wmo:42045:1,2006-11-06T02:00:00Z,26.2168,-96.4998,1015.11,11111222 
TABS,ioos:station:wmo:42045:1,2006-11-06T02:30:00Z,26.2168,-96.4998,1015.15,11111222 
TABS,ioos:station:wmo:42045:1,2006-11-06T03:00:00Z,26.2168,-96.4998,1015.07,11111222 
TABS,ioos:station:wmo:42045:1,2006-11-06T03:30:00Z,26.2168,-96.4998,1015.1,11111222 
TABS,ioos:station:wmo:42045:1,2006-11-06T04:00:00Z,26.2168,-96.4998,1014.98,11111222 
TABS,ioos:station:wmo:42045:1,2006-11-06T04:30:00Z,26.2168,-96.4998,1015.34,11111222 
TABS,ioos:station:wmo:42045:1,2006-11-06T05:00:00Z,26.2168,-96.4998,1015.18,11111222 
TABS,ioos:station:wmo:42045:1,2006-11-06T05:30:00Z,26.2168,-96.4998,1015.07,11111222 
TABS,ioos:station:wmo:42045:1,2006-11-06T06:00:00Z,26.2168,-96.4998,1014.69,11111222 
TABS,ioos:station:wmo:42045:1,2006-11-06T06:30:00Z,26.2168,-96.4998,1014.4,11111222 
TABS,ioos:station:wmo:42045:1,2006-11-06T07:00:00Z,26.2168,-96.4998,1014.4,11111222 
TABS,ioos:station:wmo:42045:1,2006-11-06T07:30:00Z,26.2168,-96.4998,1014.33,11111222 
TABS,ioos:station:wmo:42045:1,2006-11-06T08:00:00Z,26.2168,-96.4998,1014.08,11111222 
TABS,ioos:station:wmo:42045:1,2006-11-06T08:30:00Z,26.2168,-96.4998,1014.06,11111222 
TABS,ioos:station:wmo:42045:1,2006-11-06T09:00:00Z,26.2168,-96.4998,1013.93,11111222 
TABS,ioos:station:wmo:42045:1,2006-11-06T09:30:00Z,26.2168,-96.4998,1013.75,11111222 
TABS,ioos:station:wmo:42045:1,2006-11-06T10:00:00Z,26.2168,-96.4998,1013.64,11111222 
TABS,ioos:station:wmo:42045:1,2006-11-06T10:30:00Z,26.2168,-96.4998,1013.82,11111222 
TABS,ioos:station:wmo:42045:1,2006-11-06T11:00:00Z,26.2168,-96.4998,1013.95,11111222 
TABS,ioos:station:wmo:42045:1,2006-11-06T11:30:00Z,26.2168,-96.4998,1013.66,11111222 
TABS,ioos:station:wmo:42045:1,2006-11-06T12:00:00Z,26.2168,-96.4998,1014.16,11111222 
TABS,ioos:station:wmo:42045:1,2006-11-06T12:30:00Z,26.2168,-96.4998,1014.53,11111222 
TABS,ioos:station:wmo:42045:1,2006-11-06T13:00:00Z,26.2168,-96.4998,1014.49,11111222 
TABS,ioos:station:wmo:42045:1,2006-11-06T13:30:00Z,26.2168,-96.4998,1014.65,11111222 
TABS,ioos:station:wmo:42045:1,2006-11-06T14:00:00Z,26.2168,-96.4998,1014.83,11111222 
TABS,ioos:station:wmo:42045:1,2006-11-06T14:30:00Z,26.2168,-96.4998,1015.24,11111222 
TABS,ioos:station:wmo:42045:1,2006-11-06T15:00:00Z,26.2168,-96.4998,1015.15,11111222 
TABS,ioos:station:wmo:42045:1,2006-11-06T15:30:00Z,26.2168,-96.4998,1015.31,11111222 
TABS,ioos:station:wmo:42045:1,2006-11-06T16:00:00Z,26.2168,-96.4998,1015.37,11111222 
TABS,ioos:station:wmo:42045:1,2006-11-06T16:30:00Z,26.2168,-96.4998,1015.4,11111222 
TABS,ioos:station:wmo:42045:1,2006-11-06T17:00:00Z,26.2168,-96.4998,1015.26,11111222 
TABS,ioos:station:wmo:42045:1,2006-11-06T17:30:00Z,26.2168,-96.4998,1014.82,11111222 
TABS,ioos:station:wmo:42045:1,2006-11-06T18:00:00Z,26.2168,-96.4998,1014.69,11111222 
TABS,ioos:station:wmo:42045:1,2006-11-06T18:30:00Z,26.2168,-96.4998,1014.24,11111222 